2021-12-25 00:03:17 r, 19.65m,0000000001Hz,0000394596c,0000000.856s,-006.5C,00002191
2021-12-25 00:13:16 r, 19.60m,0000000002Hz,0000377484c,0000000.819s,-006.5C,00002191
2021-12-25 00:23:16 r, 19.57m,0000000001Hz,0000364920c,0000000.792s,-006.5C,00002191
2021-12-25 00:33:17 r, 19.53m,0000000001Hz,0000354294c,0000000.769s,-006.5C,00002191
2021-12-25 00:43:16 r, 19.50m,0000000002Hz,0000344510c,0000000.748s,-006.8C,00002191
2021-12-25 00:53:16 r, 19.47m,0000000001Hz,0000334019c,0000000.725s,-007.1C,00002191
2021-12-25 01:03:18 r, 19.44m,0000000002Hz,0000324447c,0000000.704s,-007.1C,00002191
2021-12-25 01:13:16 r, 19.40m,0000000002Hz,0000313760c,0000000.681s,-007.5C,00002191
2021-12-25 01:23:16 r, 19.37m,0000000001Hz,0000303230c,0000000.658s,-007.5C,00002191
2021-12-25 01:33:18 r, 19.32m,0000000002Hz,0000291993c,0000000.634s,-007.8C,00002191
2021-12-25 01:43:16 r, 19.28m,0000000002Hz,0000281269c,0000000.610s,-008.1C,00002191
2021-12-25 01:53:18 r, 19.23m,0000000002Hz,0000270317c,0000000.587s,-008.1C,00002191
2021-12-25 02:03:16 r, 19.19m,0000000002Hz,0000258180c,0000000.560s,-008.1C,00002191
2021-12-25 02:13:16 r, 19.14m,0000000002Hz,0000245782c,0000000.533s,-008.1C,00002191
2021-12-25 02:23:17 r, 19.09m,0000000002Hz,0000235214c,0000000.510s,-008.1C,00002191
2021-12-25 02:33:17 r, 19.03m,0000000002Hz,0000222551c,0000000.483s,-008.1C,00002191
2021-12-25 02:43:16 r, 18.97m,0000000002Hz,0000211942c,0000000.460s,-008.1C,00002191
2021-12-25 02:53:17 r, 18.89m,0000000002Hz,0000196752c,0000000.427s,-008.4C,00002191
2021-12-25 03:03:16 r, 18.81m,0000000003Hz,0000184024c,0000000.399s,-008.4C,00002191
2021-12-25 03:13:16 r, 18.76m,0000000002Hz,0000174542c,0000000.379s,-008.4C,00002191
2021-12-25 03:23:16 r, 18.70m,0000000003Hz,0000164374c,0000000.357s,-008.1C,00002191
2021-12-25 03:33:18 r, 18.64m,0000000003Hz,0000155769c,0000000.338s,-007.8C,00002191
2021-12-25 03:43:16 r, 18.85m,0000000002Hz,0000188190c,0000000.408s,-007.8C,00002191
2021-12-25 03:53:16 r, 18.50m,0000000004Hz,0000137134c,0000000.298s,-007.8C,00002191
2021-12-25 04:03:16 r, 18.43m,0000000003Hz,0000128415c,0000000.279s,-007.8C,00002191
2021-12-25 04:13:16 r, 18.61m,0000000003Hz,0000152130c,0000000.330s,-007.8C,00002191
2021-12-25 04:23:16 r, 18.51m,0000000003Hz,0000138374c,0000000.300s,-008.1C,00002191
2021-12-25 04:33:17 r, 18.34m,0000000004Hz,0000118570c,0000000.257s,-008.4C,00002191
2021-12-25 04:43:16 r, 18.61m,0000000003Hz,0000152259c,0000000.330s,-008.4C,00002191
2021-12-25 04:53:16 r, 18.45m,0000000003Hz,0000131696c,0000000.286s,-008.8C,00002191
2021-12-25 05:03:17 r, 18.12m,0000000005Hz,0000096865c,0000000.210s,-008.8C,00002191
2021-12-25 05:13:16 r, 17.91m,0000000006Hz,0000080173c,0000000.174s,-009.1C,00002191
2021-12-25 05:23:16 r, 17.89m,0000000006Hz,0000079334c,0000000.172s,-008.8C,00002191
2021-12-25 05:33:18 r, 17.80m,0000000007Hz,0000072374c,0000000.157s,-008.8C,00002191
2021-12-25 05:43:16 r, 17.85m,0000000006Hz,0000076024c,0000000.165s,-008.8C,00002191
2021-12-25 05:53:16 r, 17.90m,0000000006Hz,0000079766c,0000000.173s,-008.4C,00002191
2021-12-25 06:03:18 r, 17.93m,0000000006Hz,0000081681c,0000000.177s,-008.4C,00002191
2021-12-25 06:13:16 r, 17.74m,0000000006Hz,0000068501c,0000000.149s,-008.4C,00002191
2021-12-25 06:23:16 r, 17.64m,0000000007Hz,0000061969c,0000000.134s,-008.4C,00002191
2021-12-25 06:33:16 r, 17.83m,0000000007Hz,0000073853c,0000000.160s,-008.1C,00002191
2021-12-25 06:43:17 r, 17.76m,0000000007Hz,0000069306c,0000000.150s,-007.8C,00002191
2021-12-25 06:53:16 r, 17.65m,0000000007Hz,0000062698c,0000000.136s,-007.8C,00002191
2021-12-25 07:03:17 r, 17.43m,0000000009Hz,0000050743c,0000000.110s,-007.5C,00002191
2021-12-25 07:13:16 r, 17.21m,0000000011Hz,0000041613c,0000000.090s,-007.5C,00002191
2021-12-25 07:23:16 r, 16.64m,0000000018Hz,0000024755c,0000000.054s,-007.1C,00002191
2021-12-25 07:33:18 r, 15.48m,0000000053Hz,0000008539c,0000000.019s,-007.1C,00002191
2021-12-25 07:43:16 r, 13.83m,0000000248Hz,0000000000c,0000000.000s,-006.8C,00002191
2021-12-25 07:53:16 r, 12.10m,0000001227Hz,0000000000c,0000000.000s,-006.8C,00002191
2021-12-25 08:03:18 r, 10.24m,0000006806Hz,0000000000c,0000000.000s,-006.5C,00002191
2021-12-25 08:13:16 r, 08.69m,0000028209Hz,0000000000c,0000000.000s,-006.5C,00002191
2021-12-25 08:23:16 r, 07.71m,0000070023Hz,0000000000c,0000000.000s,-006.2C,00002191
2021-12-25 08:33:16 r, 06.98m,0000137091Hz,0000000000c,0000000.000s,-006.2C,00002191
2021-12-25 08:43:17 r, 06.35m,0000242997Hz,0000000000c,0000000.000s,-005.9C,00002191
2021-12-25 08:53:16 r, 05.98m,0000344050Hz,0000000000c,0000000.000s,-005.5C,00002191
2021-12-25 09:03:17 r, 00.00m,0000524086Hz,0000000000c,0000000.000s,-005.5C,00002191
2021-12-25 09:13:16 r, 00.00m,0000599901Hz,0000000000c,0000000.000s,-005.2C,00002191
2021-12-25 09:23:16 r, 00.00m,0000599683Hz,0000000000c,0000000.000s,-004.6C,00002191
2021-12-25 09:33:16 r, 00.00m,0000599706Hz,0000000000c,0000000.000s,-004.2C,00002191
2021-12-25 09:43:18 r, 00.00m,0000599678Hz,0000000000c,0000000.000s,-003.6C,00002191
2021-12-25 09:53:16 r, 00.00m,0000599558Hz,0000000000c,0000000.000s,-003.3C,00002191
2021-12-25 10:03:18 r, 00.00m,0000599674Hz,0000000000c,0000000.000s,-003.0C,00002191
2021-12-25 10:13:16 r, 00.00m,0000599584Hz,0000000000c,0000000.000s,-002.3C,00002191
2021-12-25 10:23:16 r, 00.00m,0000599542Hz,0000000000c,0000000.000s,-002.3C,00002191
2021-12-25 10:33:18 r, 00.00m,0000599516Hz,0000000000c,0000000.000s,-001.7C,00002191
2021-12-25 10:43:16 r, 00.00m,0000599519Hz,0000000000c,0000000.000s,-001.3C,00002191
2021-12-25 10:53:16 r, 00.00m,0000599371Hz,0000000000c,0000000.000s,-001.0C,00002191
2021-12-25 11:03:16 r, 00.00m,0000599357Hz,0000000000c,0000000.000s,-000.7C,00002191
2021-12-25 11:13:17 r, 00.00m,0000599255Hz,0000000000c,0000000.000s,-000.4C,00002191
2021-12-25 11:23:16 r, 00.00m,0000599267Hz,0000000000c,0000000.000s, 000.1C,00002191
2021-12-25 11:33:17 r, 00.00m,0000599360Hz,0000000000c,0000000.000s, 000.1C,00002191
2021-12-25 11:43:16 r, 00.00m,0000599230Hz,0000000000c,0000000.000s, 000.3C,00002191
2021-12-25 11:53:16 r, 00.00m,0000599259Hz,0000000000c,0000000.000s, 000.6C,00002191
2021-12-25 12:03:16 r, 00.00m,0000599149Hz,0000000000c,0000000.000s, 000.9C,00002191
2021-12-25 12:13:18 r, 00.00m,0000599057Hz,0000000000c,0000000.000s, 001.2C,00002191
2021-12-25 12:23:16 r, 00.00m,0000599237Hz,0000000000c,0000000.000s, 001.2C,00002191
2021-12-25 12:33:18 r, 00.00m,0000599321Hz,0000000000c,0000000.000s, 000.9C,00002191
2021-12-25 12:43:16 r, 00.00m,0000599188Hz,0000000000c,0000000.000s, 000.6C,00002191
2021-12-25 12:53:16 r, 00.00m,0000599197Hz,0000000000c,0000000.000s, 000.9C,00002191
2021-12-25 13:03:18 r, 00.00m,0000599184Hz,0000000000c,0000000.000s, 001.2C,00002191
2021-12-25 13:13:16 r, 00.00m,0000599144Hz,0000000000c,0000000.000s, 001.6C,00002191
2021-12-25 13:23:16 r, 00.00m,0000599153Hz,0000000000c,0000000.000s, 001.6C,00002191
2021-12-25 13:33:16 r, 00.00m,0000599198Hz,0000000000c,0000000.000s, 001.6C,00002191
2021-12-25 13:43:17 r, 00.00m,0000599212Hz,0000000000c,0000000.000s, 001.2C,00002191
2021-12-25 13:53:16 r, 00.00m,0000599233Hz,0000000000c,0000000.000s, 001.2C,00002191
2021-12-25 14:03:17 r, 00.00m,0000599158Hz,0000000000c,0000000.000s, 001.2C,00002191
2021-12-25 14:13:16 r, 00.00m,0000599103Hz,0000000000c,0000000.000s, 001.6C,00002191
2021-12-25 14:23:16 r, 00.00m,0000599143Hz,0000000000c,0000000.000s, 001.6C,00002191
2021-12-25 14:33:16 r, 00.00m,0000599127Hz,0000000000c,0000000.000s, 001.6C,00002191
2021-12-25 14:43:18 r, 00.00m,0000599343Hz,0000000000c,0000000.000s, 001.6C,00002191
2021-12-25 14:53:16 r, 00.00m,0000599261Hz,0000000000c,0000000.000s, 001.6C,00002191
2021-12-25 15:03:16 r, 00.00m,0000599210Hz,0000000000c,0000000.000s, 001.2C,00002191
2021-12-25 15:13:16 r, 00.00m,0000599289Hz,0000000000c,0000000.000s, 000.6C,00002191
2021-12-25 15:23:16 r, 00.00m,0000599323Hz,0000000000c,0000000.000s, 000.6C,00002191
2021-12-25 15:33:16 r, 00.00m,0000599370Hz,0000000000c,0000000.000s, 000.3C,00002191
2021-12-25 15:43:17 r, 00.00m,0000599435Hz,0000000000c,0000000.000s, 000.1C,00002191
2021-12-25 15:53:16 r, 00.00m,0000518943Hz,0000000000c,0000000.000s,-000.4C,00002191
2021-12-25 16:03:17 r, 05.83m,0000392454Hz,0000000000c,0000000.000s,-001.0C,00002191
2021-12-25 16:13:16 r, 06.58m,0000197292Hz,0000000000c,0000000.000s,-001.3C,00002191
2021-12-25 16:23:16 r, 07.20m,0000111828Hz,0000000000c,0000000.000s,-002.0C,00002191
2021-12-25 16:33:16 r, 07.76m,0000066795Hz,0000000000c,0000000.000s,-002.3C,00002191
2021-12-25 16:43:18 r, 08.61m,0000030504Hz,0000000000c,0000000.000s,-002.6C,00002191
2021-12-25 16:53:16 r, 10.05m,0000008119Hz,0000000000c,0000000.000s,-002.6C,00002191
2021-12-25 17:03:16 r, 11.80m,0000001608Hz,0000000000c,0000000.000s,-002.3C,00002191
2021-12-25 17:13:16 r, 13.66m,0000000291Hz,0000000000c,0000000.000s,-002.3C,00002191
2021-12-25 17:23:16 r, 15.46m,0000000055Hz,0000008391c,0000000.018s,-002.3C,00002191
2021-12-25 17:33:18 r, 16.91m,0000000014Hz,0000031867c,0000000.069s,-002.3C,00002191
2021-12-25 17:43:16 r, 17.88m,0000000006Hz,0000078118c,0000000.170s,-002.3C,00002191
2021-12-25 17:53:16 r, 18.84m,0000000002Hz,0000186474c,0000000.405s,-002.3C,00002191
2021-12-25 18:03:16 r, 19.34m,0000000001Hz,0000298693c,0000000.648s,-002.6C,00002191
2021-12-25 18:13:17 r, 19.56m,0000000002Hz,0000360756c,0000000.783s,-002.6C,00002191
2021-12-25 18:23:15 r, 19.19m,0000000002Hz,0000258015c,0000000.560s,-003.0C,00002191
2021-12-25 18:33:16 r, 18.83m,0000000003Hz,0000184522c,0000000.400s,-003.0C,00002191
2021-12-25 18:43:18 r, 18.81m,0000000003Hz,0000180327c,0000000.391s,-003.0C,00002191
2021-12-25 18:53:16 r, 19.06m,0000000002Hz,0000228637c,0000000.496s,-003.0C,00002191
2021-12-25 19:03:15 r, 19.35m,0000000001Hz,0000299685c,0000000.650s,-003.0C,00002191
2021-12-25 19:13:18 r, 19.43m,0000000001Hz,0000323415c,0000000.702s,-003.0C,00002191
2021-12-25 19:23:15 r, 19.08m,0000000002Hz,0000231965c,0000000.503s,-003.3C,00002191
2021-12-25 19:33:18 r, 19.01m,0000000003Hz,0000218127c,0000000.473s,-003.3C,00002191
2021-12-25 19:43:16 r, 18.81m,0000000003Hz,0000182170c,0000000.395s,-003.0C,00002191
2021-12-25 19:53:16 r, 18.55m,0000000004Hz,0000143866c,0000000.312s,-003.0C,00002191
2021-12-25 20:03:16 r, 18.87m,0000000003Hz,0000191861c,0000000.416s,-003.0C,00002191
2021-12-25 20:13:16 r, 19.23m,0000000001Hz,0000268822c,0000000.583s,-003.0C,00002191
2021-12-25 20:23:15 r, 19.42m,0000000001Hz,0000320656c,0000000.696s,-002.6C,00002191
2021-12-25 20:33:15 r, 19.37m,0000000001Hz,0000305335c,0000000.663s,-003.0C,00002191
2021-12-25 20:43:17 r, 19.30m,0000000001Hz,0000286014c,0000000.621s,-003.3C,00002191
2021-12-25 20:53:15 r, 18.83m,0000000002Hz,0000186340c,0000000.404s,-003.6C,00002191
2021-12-25 21:03:16 r, 18.79m,0000000003Hz,0000178707c,0000000.388s,-003.6C,00002191
2021-12-25 21:13:18 r, 18.67m,0000000003Hz,0000160150c,0000000.348s,-003.3C,00002191
2021-12-25 21:23:15 r, 18.68m,0000000003Hz,0000160772c,0000000.349s,-003.0C,00002191
2021-12-25 21:33:15 r, 18.74m,0000000003Hz,0000170166c,0000000.369s,-002.6C,00002191
2021-12-25 21:43:18 r, 18.83m,0000000003Hz,0000186135c,0000000.404s,-002.6C,00002191
2021-12-25 21:53:15 r, 19.09m,0000000002Hz,0000235978c,0000000.512s,-002.6C,00002191
2021-12-25 22:03:16 r, 18.98m,0000000002Hz,0000212320c,0000000.461s,-003.0C,00002191
2021-12-25 22:13:16 r, 19.22m,0000000002Hz,0000265064c,0000000.575s,-003.0C,00002191
2021-12-25 22:23:15 r, 19.43m,0000000001Hz,0000322373c,0000000.700s,-003.0C,00002191
2021-12-25 22:33:15 r, 19.62m,0000000002Hz,0000383071c,0000000.831s,-003.3C,00002191
2021-12-25 22:43:17 r, 19.43m,0000000002Hz,0000322624c,0000000.700s,-003.3C,00002191
2021-12-25 22:53:16 r, 19.52m,0000000001Hz,0000350356c,0000000.760s,-003.3C,00002191
2021-12-25 23:03:15 r, 19.40m,0000000002Hz,0000315173c,0000000.684s,-003.6C,00002191
2021-12-25 23:13:18 r, 19.81m,0000000001Hz,0000455167c,0000000.988s,-003.6C,00002191
2021-12-25 23:23:16 r, 20.03m,0000000001Hz,0000560594c,0000001.217s,-003.9C,00002191
2021-12-25 23:33:15 r, 20.07m,0000000001Hz,0000585364c,0000001.270s,-003.9C,00002191
2021-12-25 23:43:18 r, 20.02m,0000000001Hz,0000553794c,0000001.202s,-004.2C,00002191
2021-12-25 23:53:16 r, 19.93m,0000000000Hz,0000509772c,0000001.106s,-004.6C,00002191
